Home > Time Zones > World Clock > Weather > Egypt > Cairo > Past weeks

Flag Weather past 2 weeks in Cairo, Egypt

Now
68 °F

Scattered clouds.


Feels Like: 68 °F
Forecast: 58 / 69 °F
Wind: 9 mph from West

Location: Cairo Airport

Current Time: Nov 23, 2014 at 2:09:38 PM

Latest Report: Nov 23, 2014 at 1:30 PM


Visibility: N/A

Pressure: 30.04 "Hg

Humidity: 46%

Dew point: 46 °F

Location of CairoLocation

Historic Weather in Cairo — Graph

°F

Cairo temperature yesterday

Maximum temperature yesterday: 72 °F (at 12:00 PM)
Minimum temperature yesterday: 59 °F (at 6:00 AM)
Average temperature yesterday: 66 °F

Past Weeks' High & Low Weather Summary

 TemperatureHumidityPressure
High86 °F (Nov 8, 1:00 PM)100% (Nov 20, 8:00 AM)30.15 "Hg (Nov 20, 8:00 AM)
Low57 °F (Nov 19, 6:30 AM)16% (Nov 8, 4:30 PM)29.89 "Hg (Nov 13, 3:00 PM)
Average68 °F62%30.03 "Hg
* Reported Nov 8 1:00 PM — Nov 23 1:00 PM, Cairo, Weather by CustomWeather, © 2014

Note: Actual official high and low records may vary slightly from our data, if they occured in-between our weather recording intervals... More about our weather records

Advertising

Cairo weather history for previous 24 hours

 ConditionsComfort  
Time TempWeatherWind HumidityBarometerVisibility
1:00 PM
Nov 23
66 °FBroken clouds.6 mph49%30.04 "HgN/A
12:30 PM66 °FBroken clouds.5 mph49%30.04 "HgN/A
12:00 PM66 °FBroken clouds.9 mph49%30.07 "HgN/A
11:30 AM66 °FPartly sunny.9 mph49%30.07 "HgN/A
11:00 AM66 °FPartly sunny.8 mph46%30.07 "HgN/A
10:30 AM68 °FPartly sunny.7 mph46%30.07 "Hg4 mi
10:00 AM66 °FPartly sunny.5 mph52%30.09 "Hg2 mi
9:30 AM66 °FPartly sunny.No wind52%30.09 "Hg2 mi
9:00 AM64 °FPartly sunny.No wind60%30.09 "Hg2 mi
8:30 AM61 °FPartly sunny.No wind68%30.09 "Hg2 mi
8:00 AM61 °FPartly sunny.No wind68%30.09 "Hg2 mi
7:30 AM59 °FScattered clouds.No wind68%30.07 "Hg4 mi
7:00 AM59 °FScattered clouds.No wind68%30.07 "Hg4 mi
6:30 AM59 °FScattered clouds.No wind68%30.07 "HgN/A
6:00 AM59 °FPassing clouds.No wind68%30.07 "HgN/A
5:30 AM59 °FClear.No wind68%30.07 "Hg10 mi
5:00 AM59 °FClear.No wind68%30.07 "Hg10 mi
4:30 AM61 °FPassing clouds.No wind63%30.07 "HgN/A
4:00 AM61 °FPassing clouds.No wind63%30.07 "HgN/A
3:30 AM63 °FPassing clouds.No wind59%30.07 "HgN/A
3:00 AM63 °FPassing clouds.No wind59%30.07 "HgN/A
2:30 AM63 °FPassing clouds.No wind59%30.07 "HgN/A
2:00 AM63 °FPassing clouds.5 mph59%30.09 "HgN/A
1:30 AM63 °FPassing clouds.3 mph59%30.07 "HgN/A
1:00 AM64 °FPassing clouds.3 mph52%30.07 "HgN/A
12:30 AM64 °FPassing clouds.5 mph52%30.09 "HgN/A
12:00 AM64 °FPassing clouds.5 mph52%30.09 "HgN/A
11:30 PM
Nov 22
64 °FPassing clouds.No wind56%30.09 "HgN/A
11:00 PM64 °FPassing clouds.No wind56%30.09 "HgN/A
10:30 PM63 °FPassing clouds.No wind59%30.09 "HgN/A
10:00 PM63 °FPassing clouds.No wind59%30.09 "HgN/A
9:30 PM63 °FPassing clouds.No wind59%30.09 "HgN/A
9:00 PM64 °FPassing clouds.No wind60%30.09 "HgN/A
8:30 PM64 °FPassing clouds.5 mph60%30.09 "HgN/A
8:00 PM66 °FPassing clouds.8 mph56%30.09 "HgN/A
7:30 PM66 °FPassing clouds.8 mph60%30.09 "HgN/A
7:00 PM66 °FPassing clouds.8 mph60%30.09 "HgN/A
6:30 PM66 °FPassing clouds.8 mph60%30.07 "HgN/A
6:00 PM68 °FPassing clouds.9 mph56%30.07 "HgN/A
5:30 PM68 °FPassing clouds.10 mph60%30.07 "HgN/A
5:00 PM70 °FPassing clouds.8 mph57%30.07 "HgN/A
4:30 PM70 °FScattered clouds.9 mph57%30.04 "HgN/A
4:00 PM70 °FScattered clouds.9 mph53%30.04 "HgN/A
3:30 PM70 °FScattered clouds.10 mph53%30.04 "HgN/A
3:00 PM72 °FScattered clouds.10 mph44%30.04 "HgN/A
2:30 PM72 °FScattered clouds.10 mph47%30.04 "HgN/A
2:00 PM72 °FScattered clouds.10 mph47%30.04 "HgN/A
Weather by CustomWeather, © 2014

See weather overviewHow to use our weather pages